Altoona, PA

10:02 AM EST on December 05, 2019 (GMT -0500)
Altoona-Blair County

Weather History for KAOO - May, 2019

Change the Weather History Date:

Wednesday, May 29, 2019

  Actual Average Record
Temperature  
Mean Temperature 74 °F 62 °F  
Max Temperature 84 °F 72 °F 94 °F (1969)
Min Temperature 63 °F 51 °F 35 °F (1949)
Degree Days  
Heating Degree Days 0 5  
Month to date heating degree days 116 233  
Since 1 July heating degree days 5670 6151  
Cooling Degree Days 9 2  
Month to date cooling degree days 63 22  
Year to date cooling degree days 63 28  
Growing Degree Days 22 (Base 50)    
Moisture  
Dew Point 65 °F    
Average Humidity 79    
Maximum Humidity 100    
Minimum Humidity 58    
Precipitation  
Precipitation 0.52 in 0.12 in 1.12 in (2012)
Month to date precipitation 6.66 3.47  
Year to date precipitation 19.47 13.94  
Sea Level Pressure  
Sea Level Pressure 29.75 in    
Wind  
Wind Speed 7 mph (West)    
Max Wind Speed 31 mph    
Max Gust Speed 40 mph    
Visibility 8 miles    
Events Rain , Thunderstorm    
T = Trace of Precipitation, MM = Missing Value Source: NWS Daily Summary

Daily Weather History Graph

Daily Weather History Graph

Search for Another Location

Airport or City:

Astronomy

May. 29, 2019 Rise Set
Actual Time 5:47 AM EDT 8:34 PM EDT
Civil Twilight 5:15 AM EDT 9:06 PM EDT
Nautical Twilight 4:34 AM EDT 9:47 PM EDT
Astronomical Twilight 3:48 AM EDT 10:33 PM EDT
Moon 3:25 AM EDT (5/29) 3:40 PM EDT (5/29)
Length of Visible Light 15h 51m
Length of Day
14h 47m
Waning Crescent, 23% of the Moon is Illuminated
May 29
Waning Crescent
Jun 3
New
Jun 10
First Quarter
Jun 17
Full
Jun 25
Last Quarter

Hourly Weather History & Observations

Time (EDT) Temp. Heat Index Dew Point Humidity Pressure Visibility Wind Dir Wind Speed Gust Speed Precip Events Conditions
12:03 AM 64.0 °F - - N/A% 29.80 in 10.0 mi SSW 6.9 mph - 0.01 in Rain , Thunderstorm Light Rain
12:21 AM 64.0 °F - - N/A% 29.79 in 10.0 mi Calm Calm - 0.02 in Rain Light Rain
12:53 AM 64.0 °F - - N/A% 29.75 in 10.0 mi SW 3.5 mph - 0.02 in   Partly Cloudy
1:53 AM 63.0 °F - - N/A% 29.75 in 10.0 mi Calm Calm - N/A   Overcast
2:53 AM 63.0 °F - - N/A% 29.75 in 10.0 mi Calm Calm - N/A   Mostly Cloudy
3:15 AM 63.0 °F - 63.0 °F 100% 29.80 in 8.0 mi North 4.6 mph - N/A Thunderstorm Overcast
3:30 AM 64.0 °F - 63.0 °F 96% 29.82 in 4.0 mi WNW 3.5 mph - 0.01 in Rain Light Rain
3:53 AM 64.0 °F - 64.0 °F 100% 29.78 in 5.0 mi SSW 6.9 mph - 0.04 in Rain Light Rain
4:53 AM 64.0 °F - 63.0 °F 96% 29.77 in 10.0 mi SW 8.1 mph - 0.02 in   Clear
5:53 AM 64.9 °F - 64.0 °F 97% 29.77 in 10.0 mi SW 4.6 mph - N/A   Clear
6:53 AM 66.9 °F - 63.0 °F 87% 29.77 in 10.0 mi South 8.1 mph - N/A   Clear
7:53 AM 71.1 °F - 64.9 °F 81% 29.78 in 10.0 mi SSW 5.8 mph - N/A   Scattered Clouds
8:53 AM 73.9 °F - 66.9 °F 79% 29.76 in 10.0 mi SW 10.4 mph - N/A   Partly Cloudy
9:53 AM 75.9 °F - 66.9 °F 74% 29.74 in 10.0 mi SW 11.5 mph - N/A   Clear
10:53 AM 75.9 °F - 66.9 °F 74% 29.73 in 10.0 mi SW 12.7 mph - N/A   Partly Cloudy
11:53 AM 77.0 °F - 66.9 °F 71% 29.74 in 10.0 mi SW 13.8 mph - N/A   Mostly Cloudy
12:53 PM 82.0 °F 84.9 °F 68.0 °F 62% 29.70 in 10.0 mi WSW 15.0 mph 25.3 mph N/A   Scattered Clouds
1:53 PM 82.9 °F 85.0 °F 66.0 °F 56% 29.67 in 10.0 mi WSW 12.7 mph 21.9 mph N/A   Partly Cloudy
2:51 PM 80.6 °F 82.3 °F 64.4 °F 58% 29.68 in 10.0 mi WSW 9.2 mph - N/A Thunderstorm Scattered Clouds
2:53 PM 80.1 °F 82.1 °F 66.0 °F 62% 29.65 in 10.0 mi WSW 9.2 mph - N/A Thunderstorm Scattered Clouds
3:23 PM 79.0 °F - 64.0 °F 60% 29.72 in 10.0 mi WSW 16.1 mph 32.2 mph N/A   Clear
3:53 PM 75.9 °F - 64.0 °F 67% 29.70 in 10.0 mi NNW 13.8 mph 28.8 mph N/A   Mostly Cloudy
4:04 PM 72.0 °F - 62.1 °F 71% 29.73 in 10.0 mi NW 13.8 mph 24.2 mph N/A Thunderstorm Mostly Cloudy
4:14 PM 70.0 °F - 62.1 °F 76% 29.75 in 1.2 mi NW 31.1 mph 40.3 mph 0.04 in Rain , Thunderstorm Light Thunderstorms and Rain
4:16 PM 68.0 °F - 63.0 °F 84% 29.75 in 0.5 mi NW 23.0 mph 40.3 mph 0.10 in Rain , Thunderstorm Heavy Thunderstorms and Rain
4:26 PM 66.9 °F - 64.0 °F 90% 29.77 in 0.8 mi WNW 11.5 mph 26.5 mph 0.35 in Rain , Thunderstorm Heavy Thunderstorms and Rain
4:32 PM 68.0 °F - 64.0 °F 87% 29.77 in 2.0 mi West 10.4 mph - 0.37 in Rain , Thunderstorm Light Thunderstorms and Rain
4:40 PM 68.0 °F - 64.0 °F 87% 29.77 in 6.0 mi West 10.4 mph - 0.38 in Rain , Thunderstorm Light Thunderstorms and Rain
4:53 PM 68.0 °F - 64.0 °F 87% 29.74 in 6.0 mi WNW 8.1 mph - 0.39 in Rain , Thunderstorm Light Thunderstorms and Rain
5:19 PM 69.1 °F - 63.0 °F 81% 29.78 in 10.0 mi West 13.8 mph - 0.01 in Rain Light Rain
5:53 PM 69.1 °F - 64.9 °F 87% 29.72 in 10.0 mi WNW 6.9 mph 19.6 mph 0.05 in Rain Light Rain
6:53 PM 69.1 °F - 64.9 °F 87% 29.74 in 9.0 mi WSW 5.8 mph - 0.00 in Rain Light Rain
7:53 PM 69.1 °F - 69.1 °F 100% 29.74 in 10.0 mi North 4.6 mph - 0.01 in   Overcast
8:53 PM 68.0 °F - 68.0 °F 100% 29.75 in 10.0 mi WSW 3.5 mph - 0.01 in Rain Light Rain
9:53 PM 66.9 °F - 66.9 °F 100% 29.77 in 9.0 mi West 5.8 mph - 0.00 in   Mostly Cloudy
10:53 PM 66.0 °F - 66.0 °F 100% 29.79 in 7.0 mi NW 4.6 mph - N/A   Clear
11:53 PM 66.0 °F - 64.0 °F 93% 29.78 in 8.0 mi West 4.6 mph - N/A   Partly Cloudy